[[{"header":{"parameterUnit":"m.s-1","parameterCategory":1,"la1":30.2991,"la2":30.254,"lo1":-89.0895,"lo2":-89.0444,"dy":0.0017,"dx":0.0017,"nx":28,"ny":28,"refTime":"2024-12-15T03:00:00:Z","depth":0,"parameterNumber":2,"parameterNumberName":"U-component_of_WINDS"},"data":[0,0,0,0,0,0,0,0,0,0,0,0,0,0,0,0,0,0,0,0,0,0,0,0,0,0,0,0,0,0,0,0,0,0,0,0,0,0,0,0,0,0,0,0,0,0,0,0,0,0,0,0,0,0,0,0,0,0,-3.324,-3.324,0,-3.3322,-3.3323,-3.3324,-3.3285,-3.3283,-3.3281,-3.3279,-3.3366,-3.337,-3.3374,0,0,0,0,0,0,0,0,0,0,0,0,0,-3.3052,-3.3056,-3.3239,-3.324,-3.3241,-3.3322,-3.3323,-3.3324,-3.3286,-3.3283,-3.3281,-3.3278,-3.3364,-3.3369,-3.3374,0,0,0,0,0,0,0,0,0,0,0,0,0,-3.3134,-3.3057,-3.3239,-3.3232,-3.3232,-3.3321,-3.3323,-3.3324,-3.3286,-3.3283,-3.328,-3.3277,-3.3363,-3.3369,-3.3375,-3.3477,0,0,-3.3395,-3.3397,0,0,0,0,0,0,0,0,-3.3129,-3.3141,-3.3232,-3.3233,-3.3233,-3.329,-3.3288,-3.3376,-3.3287,-3.3266,-3.3279,-3.3275,-3.3343,-3.3351,-3.3373,-3.3481,-3.3485,-3.3395,-3.3399,-3.3402,-3.3404,0,0,0,0,0,0,0,-3.3124,-3.3137,-3.3272,-3.3233,-3.3234,-3.3226,-3.3234,-3.3305,-3.3321,-3.3267,-3.3265,-3.3275,-3.3343,-3.3367,-3.3375,-3.3486,-3.3395,-3.3401,-3.3405,-3.3407,-3.3683,-3.3686,0,0,0,0,0,0,-3.3118,-3.3133,-3.3269,-3.3274,-3.3172,-3.3232,-3.3241,-3.3275,-3.332,-3.3324,-3.3277,-3.3273,-3.3358,-3.3368,-3.3378,-3.3501,-3.3402,-3.3408,-3.3411,-3.368,-3.3684,-3.3688,0,0,0,0,0,0,-3.3114,-3.313,-3.3266,-3.3203,-3.322,-3.3238,-3.3277,-3.3278,-3.3302,-3.3328,-3.3331,-3.3299,-3.3356,-3.3369,-3.3453,-3.3503,-3.3411,-3.3416,-3.3675,-3.3681,-3.3686,-3.3747,0,0,0,0,0,0,-3.3109,-3.3129,-3.3167,-3.3204,-3.3223,-3.3339,-3.328,-3.3282,-3.3313,-3.3308,-3.3349,-3.3353,-3.3354,-3.3444,-3.3459,-3.3511,-3.3421,-3.3671,-3.3678,-3.3684,-3.3741,-3.3754,-3.3765,0,0,0,0,0,-3.3102,-3.3182,-3.3169,-3.3186,-3.3271,-3.3342,-3.3353,-3.3352,-3.3317,-3.3357,-3.3373,-3.3352,-3.3495,-3.3452,-3.347,-3.3524,-3.3668,-3.3676,-3.3684,-3.3735,-3.3751,-3.3765,0,0,0,0,0,0,-3.3151,-3.3186,-3.3173,-3.3267,-3.3301,-3.3335,-3.3384,-3.3369,-3.3415,-3.3408,-3.3407,-3.3416,-3.3503,-3.3522,-3.3473,-3.3626,-3.3576,-3.3588,-3.361,-3.3625,-3.3637,-3.3631,-3.3427,0,0,0,0,0,-3.3172,-3.3226,-3.3254,-3.3334,-3.3352,-3.3366,-3.3396,-3.3393,-3.3429,-3.3444,-3.3466,-3.3503,-3.3557,-3.3592,-3.3643,-3.3744,-3.3753,-3.3789,-3.3802,-3.3812,-3.3822,-3.3878,-3.3895,-3.3714,-3.3713,-3.3713,0,0,-3.3218,-3.3244,-3.3278,-3.3345,-3.3371,-3.3428,-3.3378,-3.344,-3.3482,-3.3454,-3.3534,-3.3552,-3.3593,-3.3686,-3.3728,-3.3704,-3.3874,-3.3822,-3.3829,-3.3834,-3.3887,-3.3905,-3.392,-3.3719,-3.3718,-3.3717,0,0,-3.3329,-3.3353,-3.3423,-3.3451,-3.3492,-3.35,-3.3517,-3.3553,-3.3564,-3.3645,-3.3625,-3.3676,-3.3768,-3.3798,-3.3825,-3.395,-3.3932,-3.3966,-3.403,-3.4085,-3.4099,-3.4112,-3.4157,-3.4173,-3.3977,-3.3977,-3.3977,0,-3.338,-3.3463,-3.3461,-3.3525,-3.3555,-3.3532,-3.3603,-3.363,-3.3686,-3.3708,-3.3681,-3.3796,-3.3822,-3.3922,-3.3953,-3.3976,-3.3996,-3.3962,-3.4097,-3.411,-3.4122,-3.4165,-3.4182,-3.3981,-3.398,-3.398,-3.3979,0,-3.3525,-3.3583,-3.3635,-3.3689,-3.3725,-3.3792,-3.3801,-3.3839,-3.3833,-3.3844,-3.3928,-3.3958,-3.4015,-3.4039,-3.4033,-3.4139,-3.4123,-3.4096,-3.4047,-3.4143,-3.4183,-3.42,-3.3986,-3.3985,-3.3984,-3.3983,0,0,-3.3668,-3.372,-3.3739,-3.3764,-3.3808,-3.3853,-3.392,-3.3975,-3.4008,-3.4048,-3.4104,-3.4184,-3.416,-3.4191,-3.4189,-3.4237,-3.4335,-3.4205,-3.4206,-3.4228,-3.4454,-3.4474,-3.4493,-3.4323,-3.4327,-3.4329,-3.4451,0,-3.3782,-3.3898,-3.3899,-3.4006,-3.4061,-3.404,-3.4099,-3.4133,-3.4146,-3.4195,-3.421,-3.4266,-3.423,-3.4249,-3.4295,-3.4313,-3.438,-3.4304,-3.4377,-3.438,-3.4368,-3.4514,-3.4535,-3.4648,-3.4466,-3.4469,-3.4471,0,-3.3931,-3.3975,-3.4088,-3.4125,-3.4148,-3.4201,-3.4252,-3.4299,-3.4338,-3.4344,-3.438,-3.4371,-3.4441,-3.4389,-3.4486,-3.4434,-3.4464,-3.4478,-3.4482,-3.4489,-3.4431,-3.4525,-3.4684,-3.4701,-3.4496,-3.4494,-3.4492,0,-3.4025,-3.4113,-3.4192,-3.4214,-3.4259,-3.4296,-3.4317,-3.4352,-3.4386,-3.4431,-3.4453,-3.4506,-3.4536,-3.4577,-3.4584,-3.4546,-3.4681,-3.463,-3.4689,-3.4689,-3.4719,-3.4717,-3.4885,-3.4738,-3.4737,-3.4737,-3.4737,0,-3.4153,-3.4223,-3.4235,-3.4283,-3.4362,-3.4362,-3.444,-3.4458,-3.449,-3.4543,-3.4528,-3.4578,-3.4584,-3.4636,-3.4642,-3.4721,-3.4734,-3.4742,-3.4743,-3.4744,-3.4743,-3.4763,-3.4756,-3.4742,-3.4741,-3.474,-3.4739,0,-3.427,-3.4281,-3.4366,-3.4402,-3.4413,-3.4469,-3.45,-3.4548,-3.456,-3.4627,-3.4643,-3.4662,-3.4723,-3.4733,-3.4805,-3.4809,-3.4904,-3.4897,-3.4891,-3.489,-3.4949,-3.4943,-3.5136,-3.5162,-3.4998,-3.4999,-3.5,0,-3.4351,-3.4405,-3.4447,-3.4481,-3.4503,-3.4558,-3.4592,-3.4596,-3.4632,-3.4681,-3.4723,-3.4782,-3.4829,-3.4927,-3.4948,-3.5004,-3.4998,-3.5061,-3.5006,-3.5005,-3.4999,-3.4996,-3.5002,-3.5072,-3.5074,-3.5075,-3.5077,0,-3.4494,-3.4497,-3.4546,-3.4598,-3.464,-3.4681,-3.472,-3.4749,-3.4758,-3.48,-3.4861,-3.4898,-3.4971,-3.503,-3.5085,-3.5108,-3.5095,-3.5094,-3.5111,-3.5112,-3.5107,-3.5111,-3.492,-3.5089,-3.5088,-3.5087,-3.5087,-3.5086,-3.4596,-3.4643,-3.468,-3.4736,-3.4766,-3.4803,-3.4849,-3.4868,-3.4919,-3.4978,-3.4977,-3.5045,-3.5084,-3.5157,-3.5183,-3.5237,-3.5217,-3.5241,-3.5247,-3.5253,-3.5259,-3.5098,-3.5247,-3.5247,-3.5246,-3.5246,-3.5246,0,-3.4738,-3.4761,-3.4813,-3.4868,-3.4913,-3.4896,-3.4938,-3.4977,-3.5037,-3.5074,-3.5121,-3.5193,-3.525,-3.5277,-3.5334,-3.5372,-3.5368,-3.5387,-3.5384,-3.539,-3.5273,-3.5253,-3.539,-3.539,-3.539,-3.539,-3.539,-3.539,-3.4817,-3.4896,-3.4904,-3.4998,-3.5021,-3.5087,-3.5113,-3.5147,-3.5177,-3.5258,-3.5305,-3.5322,-3.5355,-3.5415,-3.5468,-3.5474,-3.5496,-3.5519,-3.5523,-3.5413,-3.5398,-3.5384,-3.5365,-3.5524,-3.5524,-3.5635,-3.5636,-3.5637]},{"header":{"parameterUnit":"m.s-1","parameterCategory":1,"la1":30.2991,"la2":30.254,"lo1":-89.0895,"lo2":-89.0444,"dy":0.0017,"dx":0.0017,"nx":28,"ny":28,"refTime":"2024-12-15T03:00:00:Z","depth":0,"parameterNumber":3,"parameterNumberName":"V-component_of_WINDS"},"data":[0,0,0,0,0,0,0,0,0,0,0,0,0,0,0,0,0,0,0,0,0,0,0,0,0,0,0,0,0,0,0,0,0,0,0,0,0,0,0,0,0,0,0,0,0,0,0,0,0,0,0,0,0,0,0,0,0,0,0.2074,0.2074,0,0.2122,0.2123,0.2124,0.2143,0.2143,0.2143,0.2143,0.2194,0.2195,0.2197,0,0,0,0,0,0,0,0,0,0,0,0,0,0.2001,0.2002,0.2074,0.2074,0.2075,0.2122,0.2123,0.2124,0.2143,0.2143,0.2143,0.2143,0.2193,0.2195,0.2197,0,0,0,0,0,0,0,0,0,0,0,0,0,0.2039,0.2002,0.2074,0.209,0.2092,0.2122,0.2123,0.2124,0.2143,0.2143,0.2143,0.2142,0.2193,0.2195,0.2197,0.2214,0,0,0.2204,0.2205,0,0,0,0,0,0,0,0,0.2037,0.2042,0.2087,0.2089,0.2092,0.2126,0.2116,0.2154,0.2143,0.2124,0.2143,0.2142,0.2172,0.2176,0.2185,0.2217,0.2219,0.2204,0.2205,0.2206,0.2207,0,0,0,0,0,0,0,0.2034,0.204,0.2093,0.2088,0.2091,0.2096,0.2102,0.2123,0.2148,0.2126,0.2127,0.2132,0.2173,0.2183,0.2186,0.222,0.2204,0.2206,0.2207,0.2208,0.2271,0.2271,0,0,0,0,0,0,0.2029,0.2038,0.2092,0.2095,0.2063,0.2098,0.2104,0.2115,0.2148,0.2153,0.2133,0.2133,0.2179,0.2184,0.2188,0.2212,0.2206,0.2208,0.221,0.227,0.2271,0.2271,0,0,0,0,0,0,0.2027,0.2033,0.209,0.2067,0.2074,0.2099,0.2112,0.2117,0.2127,0.2153,0.2158,0.2138,0.2179,0.2185,0.2208,0.2214,0.2209,0.2211,0.227,0.227,0.2271,0.2259,0,0,0,0,0,0,0.2025,0.2033,0.2039,0.2067,0.2075,0.2108,0.2113,0.2118,0.213,0.2132,0.216,0.2164,0.218,0.2205,0.221,0.2217,0.2213,0.2269,0.227,0.2271,0.2259,0.2259,0.2259,0,0,0,0,0,0.2022,0.2033,0.2039,0.2045,0.2083,0.2108,0.2113,0.213,0.2131,0.2138,0.2155,0.2164,0.2213,0.2207,0.2213,0.2221,0.2269,0.227,0.2271,0.2259,0.2259,0.2259,0,0,0,0,0,0,0.2006,0.2037,0.2044,0.2064,0.2083,0.2111,0.212,0.2129,0.2149,0.2149,0.217,0.2176,0.2198,0.2212,0.2205,0.2241,0.2242,0.2244,0.2231,0.2231,0.2231,0.2228,0.2215,0,0,0,0,0,0.2004,0.2021,0.2048,0.2063,0.2073,0.2095,0.2106,0.2118,0.2139,0.2147,0.2166,0.2186,0.2207,0.222,0.224,0.2261,0.2269,0.227,0.227,0.227,0.2272,0.2286,0.2287,0.2273,0.2273,0.2273,0,0,0.2002,0.2021,0.203,0.2061,0.2077,0.2095,0.2102,0.212,0.2134,0.215,0.2173,0.2188,0.2212,0.2235,0.2246,0.2247,0.2277,0.2271,0.2271,0.2272,0.2287,0.2288,0.229,0.2274,0.2274,0.2274,0,0,0.2007,0.2022,0.2038,0.2054,0.2078,0.2093,0.2097,0.2124,0.2135,0.2158,0.2171,0.2189,0.2222,0.224,0.2253,0.2266,0.2276,0.2272,0.2273,0.2287,0.2288,0.2289,0.2295,0.2297,0.2274,0.2274,0.2274,0,0.2001,0.2027,0.2045,0.2063,0.2076,0.2092,0.2108,0.2124,0.2153,0.2163,0.2164,0.2208,0.2225,0.2254,0.2257,0.2267,0.2273,0.2269,0.2286,0.2288,0.2289,0.2295,0.2297,0.2273,0.2273,0.2274,0.2274,0,0.2019,0.2038,0.2048,0.2076,0.2091,0.2108,0.2129,0.2142,0.2153,0.2168,0.2193,0.2215,0.224,0.2247,0.2258,0.2278,0.2278,0.2282,0.2284,0.2289,0.2296,0.2298,0.2273,0.2273,0.2273,0.2273,0,0,0.2014,0.2053,0.2057,0.2071,0.21,0.2115,0.2134,0.2158,0.217,0.219,0.2208,0.2237,0.2242,0.2257,0.2269,0.2281,0.2293,0.2285,0.2285,0.2286,0.2318,0.2315,0.2317,0.2299,0.2299,0.2299,0.2316,0,0.2024,0.2057,0.2074,0.2101,0.2119,0.2135,0.2152,0.2172,0.2187,0.2206,0.2223,0.2244,0.2247,0.2257,0.227,0.2288,0.2299,0.2287,0.2316,0.2317,0.231,0.232,0.2317,0.2332,0.2319,0.2319,0.2319,0,0.2039,0.206,0.2088,0.2117,0.2125,0.2139,0.2165,0.2182,0.2206,0.2216,0.2234,0.2246,0.2268,0.2268,0.2299,0.2291,0.2304,0.2315,0.2316,0.232,0.2319,0.2326,0.2337,0.2339,0.2323,0.2323,0.2322,0,0.2034,0.2069,0.2091,0.2102,0.2136,0.2146,0.2161,0.2184,0.2199,0.2221,0.2231,0.2255,0.2269,0.2288,0.2308,0.2305,0.2338,0.2339,0.2348,0.2348,0.2355,0.2354,0.2369,0.2361,0.2361,0.2361,0.2361,0,0.2043,0.206,0.209,0.2103,0.2123,0.2143,0.2163,0.2179,0.2201,0.2219,0.2234,0.2251,0.2275,0.2295,0.2311,0.2335,0.2341,0.2351,0.2355,0.235,0.2349,0.2359,0.2359,0.2362,0.2362,0.2361,0.2361,0,0.2041,0.2061,0.2086,0.2116,0.2124,0.2138,0.2165,0.2179,0.2196,0.2218,0.2225,0.2251,0.2276,0.2297,0.2329,0.234,0.2366,0.237,0.2358,0.236,0.2369,0.2368,0.2392,0.2397,0.2384,0.2385,0.2385,0,0.2046,0.2059,0.2091,0.2104,0.2119,0.2139,0.2155,0.2175,0.2191,0.222,0.2232,0.2258,0.2279,0.2319,0.2341,0.2367,0.2372,0.2379,0.2376,0.2372,0.2374,0.2374,0.2376,0.2379,0.2379,0.2379,0.2379,0,0.2053,0.2062,0.2083,0.2108,0.2126,0.2146,0.2168,0.2178,0.2203,0.2219,0.2245,0.2262,0.2296,0.2322,0.2351,0.2367,0.2378,0.238,0.2384,0.2379,0.2372,0.2378,0.2359,0.2379,0.2379,0.2379,0.2379,0.2379,0.2055,0.2069,0.2094,0.2117,0.2135,0.2155,0.2171,0.219,0.2211,0.224,0.2252,0.2278,0.2304,0.2343,0.236,0.2382,0.2383,0.2389,0.239,0.2391,0.2391,0.2368,0.2387,0.2387,0.2387,0.2387,0.2387,0,0.2064,0.2081,0.2102,0.2132,0.2151,0.2159,0.2184,0.2199,0.2222,0.2245,0.2267,0.2297,0.2323,0.2348,0.2376,0.2389,0.2395,0.2395,0.2395,0.2399,0.2388,0.2382,0.239,0.239,0.239,0.239,0.239,0.239,0.2071,0.2095,0.2108,0.2142,0.2159,0.2185,0.2199,0.2218,0.2237,0.227,0.2292,0.2308,0.2332,0.2362,0.2387,0.2394,0.2404,0.2403,0.2412,0.24,0.24,0.2399,0.2394,0.2405,0.2405,0.2422,0.2422,0.2422]}]]